Weather History for Toms River, NJ

Change the Weather History Date:

Thursday, September 19, 2013

  Actual Average Record
Temperature  
Mean Temperature 57 °F -  
Max Temperature 75 °F 78 °F 89 °F (1992)
Min Temperature 39 °F 54 °F 38 °F (1993)
Degree Days  
Heating Degree Days 8    
Growing Degree Days 7 (Base 50)    
Moisture  
Dew Point 46 °F    
Average Humidity 75    
Maximum Humidity 94    
Minimum Humidity 33    
Precipitation  
Precipitation 0.00 in - - ()
Sea Level Pressure  
Sea Level Pressure 30.15 in    
Wind  
Wind Speed 1 mph (South)    
Max Wind Speed 10 mph    
Max Gust Speed -    
Visibility 10 miles    
Events      
Averages and records for this station are not official NWS values.
T = Trace of Precipitation, MM = Missing Value Source: NWS Daily Summary

Daily Weather History Graph

Daily Weather History Graph

Search for Another Location

Airport:

Trip Planner

Search our weather history database for the weather conditions in past years. The results will help you decide how hot, cold, wet, or windy it might be!

Date:

Astronomy

Sep. 19, 2013 Rise Set
Actual Time 6:42 AM EDT 6:58 PM EDT
Civil Twilight 6:15 AM EDT 7:25 PM EDT
Nautical Twilight 5:43 AM EDT 7:57 PM EDT
Astronomical Twilight 5:10 AM EDT 8:29 PM EDT
Moon 6:55 PM EDT (9/19) 6:48 AM EDT (9/19)
Length of Visible Light 13h 10m
Length of Day
12h 16m
Full, 100% of the Moon is Illuminated
Sep 19
Full
Sep 26
Last Quarter
Oct 4
New
Oct 11
First Quarter
Oct 18
Full

Hourly Weather History & Observations

Time (EDT) Temp. Dew Point Humidity Pressure Visibility Wind Dir Wind Speed Gust Speed Precip Events Conditions
12:15 AM 42.8 °F 39.2 °F 87% 30.22 in 10.0 mi Calm Calm - N/A   Clear
12:35 AM 44.6 °F 42.8 °F 93% 30.22 in 10.0 mi Calm Calm - N/A   Clear
12:55 AM 44.6 °F 41.0 °F 87% 30.22 in 10.0 mi Calm Calm - N/A   Clear
1:15 AM 44.6 °F 39.2 °F 81% 30.22 in 10.0 mi Calm Calm - N/A   Clear
1:35 AM 42.8 °F 37.4 °F 81% 30.21 in 10.0 mi Calm Calm - N/A   Clear
1:55 AM 42.8 °F 39.2 °F 87% 30.21 in 10.0 mi Calm Calm - N/A   Clear
2:15 AM 42.8 °F 37.4 °F 81% 30.21 in 10.0 mi Calm Calm - N/A   Clear
2:35 AM 42.8 °F 37.4 °F 81% 30.21 in 10.0 mi Calm Calm - N/A   Clear
2:55 AM 42.8 °F 37.4 °F 81% 30.20 in 10.0 mi Calm Calm - N/A   Clear
3:15 AM 41.0 °F 35.6 °F 81% 30.20 in 10.0 mi Calm Calm - N/A   Clear
3:35 AM 42.8 °F 37.4 °F 81% 30.20 in 10.0 mi Calm Calm - N/A   Clear
3:55 AM 41.0 °F 37.4 °F 87% 30.20 in 10.0 mi Calm Calm - N/A   Clear
4:15 AM 39.2 °F 33.8 °F 81% 30.20 in 10.0 mi Calm Calm - N/A   Clear
4:35 AM 39.2 °F 35.6 °F 87% 30.20 in 10.0 mi Calm Calm - N/A   Clear
4:55 AM 39.2 °F 35.6 °F 87% 30.20 in 10.0 mi Calm Calm - N/A   Clear
5:15 AM 39.2 °F 35.6 °F 87% 30.20 in 10.0 mi Calm Calm - N/A   Partly Cloudy
5:35 AM 39.2 °F 35.6 °F 87% 30.19 in 10.0 mi Calm Calm - N/A   Clear
5:55 AM 39.2 °F 35.6 °F 87% 30.19 in 10.0 mi Calm Calm - N/A   Clear
6:15 AM 39.2 °F 35.6 °F 87% 30.20 in 10.0 mi Calm Calm - N/A   Clear
6:35 AM 39.2 °F 35.6 °F 87% 30.20 in 10.0 mi Calm Calm - N/A   Clear
6:55 AM 39.2 °F 35.6 °F 87% 30.20 in 10.0 mi Calm Calm - N/A   Clear
7:15 AM 39.2 °F 35.6 °F 87% 30.20 in 10.0 mi Calm Calm - N/A   Clear
7:35 AM 42.8 °F 37.4 °F 81% 30.21 in 10.0 mi Calm Calm - N/A   Mostly Cloudy
7:55 AM 46.4 °F 39.2 °F 76% 30.20 in 10.0 mi Calm Calm - N/A   Scattered Clouds
8:15 AM - - N/A% - - North - - N/A   Unknown
8:35 AM - - N/A% - - North - - N/A   Unknown
8:55 AM - - N/A% - - North - - N/A   Unknown
9:15 AM - - N/A% - - North - - N/A   Unknown
9:35 AM - - N/A% - - North - - N/A   Unknown
9:55 AM - - N/A% - - North - - N/A   Unknown
10:15 AM - - N/A% - - North - - N/A   Unknown
10:35 AM - - N/A% - - North - - N/A   Unknown
10:55 AM - - N/A% - - North - - N/A   Unknown
11:15 AM - - N/A% - - North - - N/A   Unknown
11:35 AM - - N/A% - - North - - N/A   Unknown
11:55 AM - - N/A% - - North - - N/A   Unknown
12:15 PM - - N/A% - - North - - N/A   Unknown
12:35 PM - - N/A% - - North - - N/A   Unknown
12:55 PM - - N/A% - - North - - N/A   Unknown
1:15 PM - - N/A% - - North - - N/A   Unknown
1:35 PM - - N/A% - - North - - N/A   Unknown
1:55 PM - - N/A% 30.14 in - NW 5.8 mph - N/A   Unknown
2:15 PM 73.4 °F 42.8 °F 33% 30.13 in 10.0 mi NNW 8.1 mph - N/A   Clear
2:35 PM 75.2 °F 48.2 °F 38% 30.13 in 10.0 mi Calm Calm - N/A   Clear
2:55 PM 75.2 °F 48.2 °F 38% 30.12 in 10.0 mi SW 9.2 mph - N/A   Clear
3:15 PM 75.2 °F 48.2 °F 38% 30.11 in 8.0 mi WSW 8.1 mph - N/A   Clear
3:35 PM 75.2 °F 48.2 °F 38% 30.11 in 10.0 mi SW 5.8 mph - N/A   Clear
3:55 PM 73.4 °F 53.6 °F 50% 30.10 in 10.0 mi South 4.6 mph - N/A   Clear
4:15 PM 73.4 °F 53.6 °F 50% 30.10 in 10.0 mi South 6.9 mph - N/A   Clear
4:35 PM 73.4 °F 53.6 °F 50% 30.10 in 10.0 mi SSE 10.4 mph - N/A   Clear
4:55 PM 71.6 °F 53.6 °F 53% 30.10 in 10.0 mi South 8.1 mph - N/A   Clear
5:15 PM 71.6 °F 53.6 °F 53% 30.10 in 10.0 mi South 10.4 mph - N/A   Clear
5:35 PM 71.6 °F 53.6 °F 53% 30.10 in 10.0 mi South 8.1 mph - N/A   Clear
5:55 PM 69.8 °F 53.6 °F 56% 30.10 in 10.0 mi South 9.2 mph - N/A   Clear
6:15 PM 69.8 °F 53.6 °F 56% 30.10 in 10.0 mi South 9.2 mph - N/A   Clear
6:35 PM 68.0 °F 53.6 °F 60% 30.10 in 10.0 mi South 4.6 mph - N/A   Clear
6:55 PM 66.2 °F 55.4 °F 68% 30.10 in 10.0 mi South 4.6 mph - N/A   Clear
7:15 PM 64.4 °F 53.6 °F 68% 30.10 in 10.0 mi South 3.5 mph - N/A   Clear
7:35 PM 62.6 °F 55.4 °F 77% 30.12 in 10.0 mi Calm Calm - N/A   Clear
7:55 PM 60.8 °F 53.6 °F 77% 30.12 in 10.0 mi Calm Calm - N/A   Clear
8:15 PM 60.8 °F 53.6 °F 77% 30.13 in 10.0 mi Calm Calm - N/A   Clear
8:35 PM 59.0 °F 53.6 °F 82% 30.13 in 10.0 mi Calm Calm - N/A   Clear
8:55 PM 57.2 °F 51.8 °F 82% 30.13 in 10.0 mi Calm Calm - N/A   Clear
9:15 PM 55.4 °F 51.8 °F 88% 30.13 in 10.0 mi Calm Calm - N/A   Clear
9:35 PM 55.4 °F 51.8 °F 88% 30.13 in 10.0 mi Calm Calm - N/A   Clear
9:55 PM 57.2 °F 53.6 °F 88% 30.13 in 10.0 mi Calm Calm - N/A   Clear
10:15 PM 57.2 °F 53.6 °F 88% 30.12 in 10.0 mi Calm Calm - N/A   Clear
10:35 PM 57.2 °F 53.6 °F 88% 30.12 in 10.0 mi Calm Calm - N/A   Clear
10:55 PM 57.2 °F 53.6 °F 88% 30.11 in 10.0 mi Calm Calm - N/A   Clear
11:15 PM 55.4 °F 51.8 °F 88% 30.11 in 10.0 mi Calm Calm - N/A   Clear
11:35 PM 53.6 °F 51.8 °F 94% 30.11 in 10.0 mi Calm Calm - N/A   Clear
11:55 PM 53.6 °F 50.0 °F 88% 30.10 in 10.0 mi Calm Calm - N/A   Clear